Date String (YYYY-MM-DD hh:mm:ss) UTC,Instrument flags,Ambient pressure (hPa),Sample flow (lpm),Bypass flow (lpm),Sample temperature (°C),Ambient temperature (°C),ASC tube jacket temperature (°C),LED temperature (°C),Box temperature (°C),Sample RH (%),Mass concentration (μg/m³),Mass concentration (μg/m³)
DateTimeUTC,F1_M11,P_M11,Q1_M11,Q2_M11,T1_M11,T2_M11,T3_M11,T4_M11,T5_M11,U1_M11,X2_M11,X0_M11
2021-08-13 06:00:00,,0834.4,5.00,0.00,29.4,28.6,00.0,38.4,31.4,29.6,0009.93,0029.53
2021-08-13 06:01:00,,0834.4,5.01,0.00,29.5,28.7,00.0,38.4,31.5,29.5,0009.90,0029.24
2021-08-13 06:02:00,,0834.4,5.00,0.00,29.5,28.8,00.0,38.5,31.5,29.4,0009.93,0030.48
2021-08-13 06:03:00,,0834.4,5.00,0.00,29.6,28.9,00.0,38.5,31.6,29.3,0009.95,0031.71
2021-08-13 06:04:00,,0834.4,5.00,0.00,29.6,28.4,00.0,38.5,31.5,29.0,0009.90,0030.44
2021-08-13 06:05:00,,0834.4,5.00,0.00,29.5,26.5,00.0,38.5,31.1,29.0,0009.88,0028.49
2021-08-13 06:06:00,,0834.4,4.99,0.00,29.3,25.4,00.0,38.5,30.7,29.3,0009.81,0028.67
2021-08-13 06:07:00,,0834.3,5.00,0.00,29.1,25.5,00.0,38.4,30.7,29.5,0009.74,0029.49
2021-08-13 06:08:00,,0834.3,5.01,0.00,29.0,26.0,00.0,38.4,30.7,29.8,0009.76,0029.19
2021-08-13 06:09:00,,0834.3,5.00,0.00,29.0,26.5,00.0,38.3,30.8,29.9,0009.74,0028.40
2021-08-13 06:10:00,,0834.3,5.00,0.00,29.0,26.9,00.0,38.3,30.9,29.9,0009.72,0028.05
2021-08-13 06:11:00,,0834.3,5.01,0.00,29.0,27.3,00.0,38.3,31.0,29.9,0009.77,0028.31
2021-08-13 06:12:00,,0834.3,4.99,0.00,29.0,27.6,00.0,38.3,31.0,29.9,0009.81,0028.48
2021-08-13 06:13:00,,0834.3,5.01,0.00,29.1,27.9,00.0,38.3,31.1,29.9,0009.79,0026.81
2021-08-13 06:14:00,,0834.3,4.99,0.00,29.2,28.1,00.0,38.3,31.2,29.9,0009.71,0025.40
2021-08-13 06:15:00,,0834.3,5.00,0.00,29.2,28.2,00.0,38.3,31.3,29.8,0009.71,0025.54
2021-08-13 06:16:00,,0834.3,5.01,0.00,29.3,28.4,00.0,38.3,31.3,29.8,0009.63,0026.80
2021-08-13 06:17:00,,0834.3,4.99,0.00,29.3,28.5,00.0,38.3,31.4,29.8,0009.66,0028.19
2021-08-13 06:18:00,,0834.2,5.00,0.00,29.4,28.6,00.0,38.4,31.4,29.7,0009.69,0027.59
2021-08-13 06:19:00,,0834.2,4.99,0.00,29.4,28.7,00.0,38.4,31.5,29.5,0009.66,0027.07
2021-08-13 06:20:00,,0834.1,5.01,0.00,29.5,28.8,00.0,38.4,31.5,29.3,0009.66,0028.12
2021-08-13 06:21:00,,0834.1,5.01,0.00,29.6,28.9,00.0,38.5,31.6,29.3,0009.62,0028.78
2021-08-13 06:22:00,,0834.2,4.99,0.00,29.6,28.9,00.0,38.5,31.6,29.1,0009.61,0029.01
2021-08-13 06:23:00,,0834.1,5.00,0.00,29.6,27.9,00.0,38.5,31.3,29.1,0009.55,0028.51
2021-08-13 06:24:00,,0834.1,5.00,0.00,29.4,26.0,00.0,38.5,30.8,29.4,0009.58,0028.68
2021-08-13 06:25:00,,0834.1,5.00,0.00,29.2,25.4,00.0,38.5,30.6,29.9,0009.57,0029.86
2021-08-13 06:26:00,,0834.1,5.01,0.00,29.0,25.7,00.0,38.4,30.7,30.3,0009.57,0030.40
2021-08-13 06:27:00,,0834.1,5.00,0.00,28.9,26.2,00.0,38.3,30.8,30.5,0009.56,0030.26
2021-08-13 06:28:00,,0834.1,5.00,0.00,28.9,26.6,00.0,38.3,30.8,30.5,0009.50,0029.47
2021-08-13 06:29:00,,0834.1,4.99,0.00,29.0,27.0,00.0,38.3,31.0,30.5,0009.48,0029.00
2021-08-13 06:30:00,,0834.1,4.99,0.00,29.0,27.4,00.0,38.3,31.0,30.4,0009.48,0029.48
2021-08-13 06:31:00,,0834.1,5.01,0.00,29.0,27.6,00.0,38.3,31.1,30.3,0009.41,0028.31
2021-08-13 06:32:00,,0834.1,4.99,0.00,29.1,27.9,00.0,38.3,31.1,30.3,0009.46,0028.66
2021-08-13 06:33:00,,0834.1,5.01,0.00,29.2,28.1,00.0,38.3,31.2,30.1,0009.38,0028.32
2021-08-13 06:34:00,,0834.1,4.99,0.00,29.2,28.3,00.0,38.3,31.3,30.0,0009.40,0028.43
2021-08-13 06:35:00,,0834.1,5.02,0.00,29.3,28.4,00.0,38.3,31.3,29.8,0009.36,0028.67
2021-08-13 06:36:00,,0834.1,5.00,0.00,29.3,28.5,00.0,38.3,31.4,29.8,0009.27,0027.20
2021-08-13 06:37:00,,0834.1,5.00,0.00,29.4,28.6,00.0,38.4,31.4,29.6,0009.21,0027.33
2021-08-13 06:38:00,,0834.1,4.99,0.00,29.4,28.7,00.0,38.4,31.5,29.5,0009.18,0026.88
2021-08-13 06:39:00,,0834.1,5.01,0.00,29.5,28.8,00.0,38.4,31.5,29.3,0009.18,0026.14
2021-08-13 06:40:00,,0834.1,5.00,0.00,29.6,28.9,00.0,38.5,31.5,29.1,0009.17,0026.38
2021-08-13 06:41:00,,0834.0,5.00,0.00,29.6,28.9,00.0,38.5,31.6,29.1,0009.14,0025.56
2021-08-13 06:42:00,,0834.1,5.01,0.00,29.6,28.2,00.0,38.5,31.4,29.0,0009.17,0025.69
2021-08-13 06:43:00,,0834.0,4.99,0.00,29.5,26.3,00.0,38.5,31.0,29.1,0009.09,0025.21
2021-08-13 06:44:00,,0834.0,4.99,0.00,29.2,25.4,00.0,38.5,30.6,29.5,0009.12,0025.85
2021-08-13 06:45:00,,0834.0,5.00,0.00,29.1,25.6,00.0,38.4,30.6,29.9,0009.17,0026.91
2021-08-13 06:46:00,,0834.0,5.02,0.00,28.9,26.0,00.0,38.4,30.7,30.1,0009.22,0028.87
2021-08-13 06:47:00,,0834.0,5.00,0.00,28.9,26.5,00.0,38.3,30.8,30.2,0009.33,0030.89
2021-08-13 06:48:00,,0834.0,5.00,0.00,28.9,26.9,00.0,38.3,30.9,30.2,0009.45,0031.46
2021-08-13 06:49:00,,0834.0,4.99,0.00,29.0,27.3,00.0,38.3,31.0,30.1,0009.50,0031.56
2021-08-13 06:50:00,,0834.0,5.01,0.00,29.0,27.6,00.0,38.3,31.0,30.1,0009.57,0032.09
2021-08-13 06:51:00,,0834.0,5.00,0.00,29.1,27.8,00.0,38.3,31.1,30.0,0009.64,0032.87
2021-08-13 06:52:00,,0834.0,4.99,0.00,29.1,28.0,00.0,38.3,31.2,30.0,0009.72,0033.70
2021-08-13 06:53:00,,0834.0,5.01,0.00,29.2,28.2,00.0,38.3,31.2,29.9,0009.80,0033.67
2021-08-13 06:54:00,,0834.0,4.99,0.00,29.2,28.3,00.0,38.3,31.3,29.8,0009.80,0033.72
2021-08-13 06:55:00,,0833.9,4.99,0.00,29.3,28.4,00.0,38.3,31.3,29.8,0009.82,0033.54
2021-08-13 06:56:00,,0833.9,5.00,0.00,29.3,28.5,00.0,38.3,31.4,29.6,0009.80,0033.19
2021-08-13 06:57:00,,0833.9,5.00,0.00,29.4,28.6,00.0,38.4,31.4,29.5,0009.76,0032.19
2021-08-13 06:58:00,,0833.9,5.01,0.00,29.5,28.7,00.0,38.4,31.5,29.4,0009.70,0030.41
2021-08-13 06:59:00,,0833.9,5.00,0.00,29.5,28.8,00.0,38.4,31.5,29.2,0009.66,0029.11
